TimeHST,TemperatureF,Dew PointF,Humidity,Sea Level PressureIn,VisibilityMPH,Wind Direction,Wind SpeedMPH,Gust SpeedMPH,PrecipitationIn,Events,Conditions,WindDirDegrees,DateUTC
12:56 AM,75.9,68.0,76,30.01,10.0,Calm,Calm,-,N/A,,Clear,0,2013-09-18 10:56:00
1:56 AM,75.0,66.9,76,29.99,10.0,East,3.5,-,N/A,,Partly Cloudy,100,2013-09-18 11:56:00
2:56 AM,75.9,68.0,76,29.98,10.0,Calm,Calm,-,N/A,,Mostly Cloudy,0,2013-09-18 12:56:00
3:56 AM,73.9,66.9,79,29.97,10.0,ENE,4.6,-,N/A,,Partly Cloudy,70,2013-09-18 13:56:00
4:56 AM,75.0,66.9,76,29.96,10.0,Calm,Calm,-,N/A,,Partly Cloudy,0,2013-09-18 14:56:00
5:56 AM,73.0,66.0,79,29.97,10.0,East,3.5,-,N/A,,Clear,80,2013-09-18 15:56:00
6:56 AM,72.0,66.9,84,29.99,10.0,NNE,3.5,-,N/A,,Clear,20,2013-09-18 16:56:00
7:56 AM,78.1,66.9,68,30.00,10.0,East,3.5,-,N/A,,Overcast,100,2013-09-18 17:56:00
8:56 AM,79.0,69.1,72,30.02,10.0,North,8.1,-,N/A,,Overcast,10,2013-09-18 18:56:00
9:56 AM,82.9,68.0,60,30.02,10.0,West,6.9,-,N/A,,Scattered Clouds,260,2013-09-18 19:56:00
10:56 AM,84.0,69.1,61,30.01,10.0,NW,10.4,-,0.00,,Mostly Cloudy,320,2013-09-18 20:56:00
11:56 AM,82.0,68.0,62,30.01,10.0,NNW,8.1,-,N/A,,Overcast,340,2013-09-18 21:56:00
12:05 PM,78.8,69.8,74,30.02,0.8,Calm,Calm,-,0.01,Rain,Heavy Rain,0,2013-09-18 22:05:00
12:16 PM,78.8,71.6,78,30.01,-9999.0,WNW,6.9,-,0.03,Rain,Light Rain,290,2013-09-18 22:16:00
12:23 PM,78.8,71.6,78,30.00,10.0,WNW,6.9,-,0.04,Rain,Light Rain,290,2013-09-18 22:23:00
12:56 PM,80.1,72.0,76,30.00,10.0,West,5.8,-,0.08,,Mostly Cloudy,280,2013-09-18 22:56:00
1:56 PM,82.9,70.0,65,29.98,10.0,NW,9.2,-,0.05,,Mostly Cloudy,320,2013-09-18 23:56:00
2:56 PM,82.9,71.1,67,29.96,10.0,WNW,8.1,-,0.03,,Overcast,290,2013-09-19 00:56:00
3:56 PM,84.0,71.1,65,29.94,10.0,WSW,6.9,-,0.02,,Partly Cloudy,240,2013-09-19 01:56:00
4:56 PM,84.0,69.1,61,29.95,10.0,SSW,6.9,-,0.02,,Clear,210,2013-09-19 02:56:00
5:56 PM,82.9,70.0,65,29.96,10.0,WSW,6.9,-,N/A,,Clear,240,2013-09-19 03:56:00
6:56 PM,82.0,70.0,67,29.97,10.0,West,4.6,-,N/A,,Clear,260,2013-09-19 04:56:00
7:56 PM,80.1,70.0,71,29.98,10.0,Calm,Calm,-,N/A,,Scattered Clouds,0,2013-09-19 05:56:00
8:56 PM,78.1,66.0,66,30.00,10.0,Calm,Calm,-,N/A,,Clear,0,2013-09-19 06:56:00
9:56 PM,77.0,63.0,62,30.00,10.0,ESE,3.5,-,N/A,,Clear,110,2013-09-19 07:56:00
10:56 PM,78.1,63.0,60,30.00,10.0,Calm,Calm,-,N/A,,Clear,0,2013-09-19 08:56:00
11:56 PM,75.9,64.0,67,30.00,10.0,Calm,Calm,-,N/A,,Clear,0,2013-09-19 09:56:00